contact:dominique.lefevre@mio.osupytheas.fr, maurice.libes@osupytheas.fr, didier.mallarino@osupytheas.fr
Project:EMSO http://www.emso-fr.org/EMSO-France
Depth: 2436.0 m
Title:EMSO Ligure Ouest : Data MII capteur AQUADOPP
Date,Latitude,Longitude,X_East,Y_North,Z_Up,Amplitude_X,Amplitude_Y,Amplitude_Z,Batterie,SoundSpeed,Heading,Pitch,Roll,Pressure,TIS,Speed,Direction
, degrees North, degrees East, m.s-1, m.s-1,m.s-1, 1, 1, 1, Volt, m.s-1, degree, degree, degree, dbar, degree_C, m.s-1, degree
2021-01-25T00:04:03,42.805,6.029,-0.047,0.021,0.017,109.0,115.0,105.0,13.3,1505.3,327.8,-0.7,1.8,2470.347,13.31,0.051,294.1
2021-01-25T00:07:03,42.805,6.029,-0.01,0.039,0.006,109.0,113.0,105.0,13.3,1505.3,324.2,-0.7,1.8,2470.331,13.32,0.04,345.6
2021-01-25T00:10:03,42.805,6.029,-0.051,0.024,-0.002,111.0,112.0,106.0,13.3,1505.3,323.3,-0.7,1.8,2470.353,13.32,0.056,295.2
2021-01-25T00:13:03,42.805,6.029,-0.029,0.017,-0.011,111.0,113.0,105.0,13.4,1505.3,326.0,-0.7,1.8,2470.411,13.32,0.033,300.4
2021-01-25T00:16:03,42.805,6.029,-0.037,0.018,0.021,110.0,113.0,105.0,13.4,1505.3,324.2,-0.7,1.8,2470.348,13.32,0.041,295.9
2021-01-25T00:19:03,42.805,6.029,-0.063,0.006,0.009,109.0,116.0,105.0,13.3,1505.3,324.3,-0.7,1.9,2470.377,13.33,0.063,275.4
2021-01-25T00:22:03,42.805,6.029,-0.05,0.005,0.014,109.0,114.0,104.0,13.3,1505.3,324.7,-0.7,1.9,2470.354,13.33,0.05,275.7
2021-01-25T00:25:03,42.805,6.029,-0.051,0.022,0.034,108.0,115.0,106.0,13.4,1505.3,325.2,-0.7,1.8,2470.352,13.33,0.055,293.3
2021-01-25T00:28:03,42.805,6.029,-0.056,0.012,-0.014,109.0,115.0,105.0,13.4,1505.3,324.2,-0.7,1.8,2470.33,13.33,0.057,282.1
2021-01-25T00:31:03,42.805,6.029,-0.057,0.011,-0.011,108.0,115.0,105.0,13.3,1505.3,326.0,-0.7,1.8,2470.346,13.33,0.058,280.9
2021-01-25T00:34:03,42.805,6.029,-0.02,0.024,0.006,110.0,113.0,105.0,13.4,1505.3,323.2,-0.7,1.8,2470.329,13.33,0.031,320.2
2021-01-25T00:37:03,42.805,6.029,-0.05,0.014,0.017,110.0,113.0,105.0,13.3,1505.3,326.0,-0.7,1.8,2470.328,13.33,0.051,285.6
2021-01-25T00:40:03,42.805,6.029,-0.04,0.006,-0.003,109.0,113.0,106.0,13.4,1505.3,326.5,-0.7,1.8,2470.32,13.33,0.04,278.5
2021-01-25T00:43:03,42.805,6.029,-0.037,0.017,-0.018,110.0,113.0,106.0,13.3,1505.3,323.5,-0.7,1.8,2470.294,13.33,0.04,294.7
2021-01-25T00:46:03,42.805,6.029,-0.038,0.024,0.026,110.0,113.0,105.0,13.4,1505.3,326.8,-0.7,1.8,2470.282,13.33,0.044,302.3
2021-01-25T00:49:03,42.805,6.029,-0.08,0.019,-0.048,109.0,112.0,105.0,13.4,1505.3,324.9,-0.7,1.8,2470.334,13.33,0.082,283.4
2021-01-25T00:52:03,42.805,6.029,-0.057,0.007,0.011,109.0,114.0,105.0,13.4,1505.3,328.4,-0.7,1.8,2470.37,13.33,0.057,277.0
2021-01-25T00:55:03,42.805,6.029,-0.03,0.018,0.03,108.0,113.0,105.0,13.3,1505.3,323.7,-0.7,1.8,2470.351,13.33,0.034,301.0
2021-01-25T00:58:03,42.805,6.029,-0.045,0.024,-0.026,108.0,115.0,105.0,13.3,1505.3,325.5,-0.7,1.8,2470.321,13.33,0.051,298.1
2021-01-25T01:04:03,42.805,6.029,-0.038,0.003,0.009,111.0,113.0,106.0,13.4,1505.3,327.9,-0.7,1.8,2470.361,13.31,0.038,274.5
2021-01-25T01:07:03,42.805,6.029,-0.035,0.015,0.0,110.0,112.0,106.0,13.4,1505.3,327.6,-0.7,1.9,2470.376,13.31,0.038,293.2
2021-01-25T01:10:03,42.805,6.029,-0.049,0.027,0.01,108.0,113.0,106.0,13.4,1505.3,324.0,-0.7,1.8,2470.351,13.32,0.055,298.9
2021-01-25T01:13:03,42.805,6.029,-0.066,-0.003,0.004,109.0,112.0,105.0,13.3,1505.3,322.8,-0.7,1.8,2470.358,13.32,0.066,267.4
2021-01-25T01:16:03,42.805,6.029,-0.037,0.012,0.031,109.0,112.0,106.0,13.3,1505.3,326.5,-0.7,1.8,2470.38,13.32,0.038,288.0
2021-01-25T01:19:03,42.805,6.029,-0.037,-0.005,0.006,109.0,111.0,105.0,13.4,1505.3,325.8,-0.7,1.8,2470.327,13.32,0.037,262.3
2021-01-25T01:22:03,42.805,6.029,-0.065,0.034,0.021,109.0,113.0,105.0,13.3,1505.3,327.2,-0.7,1.8,2470.353,13.32,0.073,297.6
2021-01-25T01:25:03,42.805,6.029,-0.044,0.03,0.047,110.0,112.0,105.0,13.4,1505.3,326.3,-0.7,1.8,2470.352,13.33,0.053,304.3
2021-01-25T01:28:03,42.805,6.029,-0.05,0.005,0.01,109.0,112.0,106.0,13.4,1505.3,326.6,-0.7,1.8,2470.369,13.33,0.05,275.7
2021-01-25T01:31:03,42.805,6.029,-0.034,0.011,0.016,108.0,113.0,105.0,13.4,1505.3,324.5,-0.7,1.8,2470.371,13.33,0.035,287.9
2021-01-25T01:34:03,42.805,6.029,-0.02,-0.006,0.002,109.0,112.0,106.0,13.4,1505.3,325.1,-0.7,1.8,2470.386,13.33,0.02,253.3
2021-01-25T01:37:03,42.805,6.029,-0.055,0.025,-0.04,108.0,111.0,108.0,13.3,1505.3,328.2,-0.7,1.8,2470.334,13.33,0.06,294.4
2021-01-25T01:40:03,42.805,6.029,-0.046,0.0,-0.03,110.0,111.0,104.0,13.4,1505.3,323.8,-0.7,1.9,2470.36,13.33,0.046,270.0
2021-01-25T01:43:03,42.805,6.029,-0.063,0.014,-0.027,109.0,113.0,105.0,13.4,1505.3,327.0,-0.7,1.8,2470.346,13.33,0.064,282.5
2021-01-25T01:46:03,42.805,6.029,-0.039,0.015,0.033,109.0,112.0,104.0,13.4,1505.3,325.7,-0.7,1.8,2470.354,13.33,0.041,291.0
2021-01-25T01:49:03,42.805,6.029,-0.06,0.013,-0.011,109.0,113.0,105.0,13.4,1505.3,325.7,-0.7,1.8,2470.36,13.33,0.061,282.2
2021-01-25T01:52:03,42.805,6.029,-0.05,0.018,0.007,109.0,112.0,105.0,13.3,1505.3,324.6,-0.7,1.8,2470.374,13.33,0.053,289.8
2021-01-25T01:55:03,42.805,6.029,-0.032,0.014,0.011,109.0,112.0,105.0,13.4,1505.3,324.3,-0.7,1.8,2470.366,13.33,0.034,293.6
2021-01-25T01:58:03,42.805,6.029,-0.041,0.007,0.018,109.0,112.0,106.0,13.4,1505.3,325.7,-0.7,1.8,2470.379,13.33,0.041,279.7
2021-01-25T02:04:03,42.805,6.029,-0.052,-0.004,-0.011,109.0,113.0,104.0,13.4,1505.3,327.5,-0.7,1.8,2470.407,13.31,0.052,265.6
2021-01-25T02:07:03,42.805,6.029,-0.041,-0.003,-0.027,110.0,111.0,106.0,13.4,1505.3,323.6,-0.7,1.8,2470.365,13.31,0.041,265.8
2021-01-25T02:10:03,42.805,6.029,-0.036,0.006,-0.034,109.0,111.0,105.0,13.4,1505.3,327.6,-0.7,1.8,2470.376,13.32,0.036,279.5
2021-01-25T02:13:03,42.805,6.029,-0.034,0.0,-0.008,109.0,112.0,104.0,13.4,1505.3,326.9,-0.7,1.9,2470.387,13.32,0.034,270.0
2021-01-25T02:16:03,42.805,6.029,-0.058,0.008,-0.017,109.0,112.0,104.0,13.4,1505.3,326.3,-0.7,1.8,2470.375,13.32,0.058,277.8
2021-01-25T02:19:03,42.805,6.029,-0.074,0.008,0.017,109.0,112.0,106.0,13.3,1505.3,326.1,-0.7,1.8,2470.384,13.32,0.074,276.2
2021-01-25T02:22:03,42.805,6.029,-0.032,0.019,-0.009,109.0,112.0,105.0,13.3,1505.3,326.6,-0.7,1.8,2470.353,13.33,0.037,300.7
2021-01-25T02:25:03,42.805,6.029,-0.056,0.007,-0.01,109.0,113.0,105.0,13.3,1505.3,325.1,-0.7,1.8,2470.378,13.33,0.056,277.1
2021-01-25T02:28:03,42.805,6.029,-0.052,0.009,-0.017,108.0,113.0,105.0,13.4,1505.3,323.7,-0.7,1.8,2470.356,13.33,0.052,279.8
2021-01-25T02:31:03,42.805,6.029,-0.066,0.005,0.008,111.0,111.0,105.0,13.4,1505.3,325.5,-0.7,1.8,2470.368,13.33,0.066,274.3
2021-01-25T02:34:03,42.805,6.029,-0.044,0.023,0.006,109.0,112.0,106.0,13.4,1505.3,327.6,-0.7,1.8,2470.354,13.33,0.049,297.6
2021-01-25T02:37:03,42.805,6.029,-0.064,-0.001,-0.015,108.0,110.0,104.0,13.4,1505.3,327.6,-0.7,1.8,2470.397,13.33,0.064,269.1
2021-01-25T02:40:03,42.805,6.029,-0.049,0.011,0.01,110.0,112.0,104.0,13.4,1505.3,327.4,-0.7,1.8,2470.332,13.33,0.05,282.7
2021-01-25T02:43:03,42.805,6.029,-0.066,0.007,0.036,108.0,113.0,105.0,13.4,1505.3,323.1,-0.7,1.8,2470.378,13.33,0.066,276.1
2021-01-25T02:46:03,42.805,6.029,-0.053,0.012,-0.019,109.0,113.0,105.0,13.3,1505.3,327.7,-0.7,1.8,2470.378,13.33,0.054,282.8
2021-01-25T02:49:03,42.805,6.029,-0.025,0.02,-0.015,108.0,112.0,104.0,13.4,1505.3,327.2,-0.7,1.8,2470.394,13.33,0.032,308.7
2021-01-25T02:52:03,42.805,6.029,-0.035,0.0,0.034,109.0,113.0,105.0,13.4,1505.3,325.0,-0.7,1.8,2470.376,13.33,0.035,270.0
2021-01-25T02:55:03,42.805,6.029,-0.07,-0.004,0.016,109.0,113.0,105.0,13.4,1505.3,326.5,-0.7,1.8,2470.377,13.33,0.07,266.7
2021-01-25T02:58:03,42.805,6.029,-0.073,0.0,-0.012,109.0,112.0,106.0,13.3,1505.3,326.3,-0.7,1.8,2470.328,13.33,0.072,270.0
2021-01-25T03:04:03,42.805,6.029,-0.05,0.0,0.008,109.0,112.0,105.0,13.4,1505.3,323.3,-0.7,1.8,2470.39,13.31,0.05,270.0
2021-01-25T03:07:03,42.805,6.029,-0.068,-0.002,-0.023,108.0,112.0,104.0,13.4,1505.3,325.8,-0.7,1.9,2470.426,13.31,0.068,268.3
2021-01-25T03:10:03,42.805,6.029,-0.068,0.015,-0.028,108.0,113.0,107.0,13.3,1505.3,324.0,-0.7,1.8,2470.441,13.32,0.069,282.4
2021-01-25T03:13:03,42.805,6.029,-0.07,0.003,0.005,109.0,111.0,107.0,13.4,1505.3,325.1,-0.7,1.8,2470.413,13.32,0.07,272.4
2021-01-25T03:16:03,42.805,6.029,-0.077,0.0,-0.027,110.0,112.0,104.0,13.3,1505.3,328.3,-0.7,1.9,2470.409,13.32,0.076,270.0
2021-01-25T03:19:03,42.805,6.029,-0.04,0.018,-0.002,110.0,112.0,104.0,13.4,1505.3,323.3,-0.7,1.9,2470.387,13.32,0.043,294.2
2021-01-25T03:22:03,42.805,6.029,-0.05,0.012,-0.038,109.0,112.0,105.0,13.4,1505.3,326.4,-0.7,1.8,2470.378,13.32,0.051,283.5
2021-01-25T03:25:03,42.805,6.029,-0.063,0.001,-0.046,110.0,113.0,105.0,13.3,1505.3,324.3,-0.7,1.8,2470.395,13.33,0.063,270.9
2021-01-25T03:28:03,42.805,6.029,-0.026,0.009,-0.016,108.0,111.0,106.0,13.4,1505.3,327.9,-0.7,1.8,2470.419,13.33,0.027,289.1
2021-01-25T03:31:03,42.805,6.029,-0.068,-0.005,-0.028,109.0,113.0,105.0,13.4,1505.3,322.8,-0.7,1.8,2470.407,13.33,0.068,265.8
2021-01-25T03:34:03,42.805,6.029,-0.057,0.015,-0.002,109.0,112.0,105.0,13.4,1505.3,325.4,-0.7,1.8,2470.408,13.33,0.058,284.7
2021-01-25T03:37:03,42.805,6.029,-0.064,0.011,0.022,109.0,113.0,105.0,13.4,1505.3,325.2,-0.7,1.8,2470.399,13.33,0.064,279.8
2021-01-25T03:40:03,42.805,6.029,-0.053,0.001,0.006,111.0,112.0,104.0,13.4,1505.3,325.0,-0.7,1.8,2470.365,13.33,0.053,271.1
2021-01-25T03:43:03,42.805,6.029,-0.049,0.0,-0.025,109.0,110.0,105.0,13.4,1505.3,323.5,-0.7,1.8,2470.403,13.33,0.049,270.0
2021-01-25T03:46:03,42.805,6.029,-0.065,0.004,-0.034,109.0,113.0,105.0,13.3,1505.3,326.9,-0.7,1.8,2470.429,13.33,0.065,273.5
2021-01-25T03:49:03,42.805,6.029,-0.053,-0.014,-0.022,110.0,113.0,105.0,13.4,1505.3,324.0,-0.7,1.8,2470.411,13.33,0.054,255.2
2021-01-25T03:52:03,42.805,6.029,-0.031,0.018,0.001,108.0,112.0,105.0,13.3,1505.3,327.1,-0.7,1.8,2470.44,13.33,0.035,300.1
2021-01-25T03:55:03,42.805,6.029,-0.065,0.006,-0.027,109.0,113.0,105.0,13.3,1505.3,327.7,-0.7,1.8,2470.409,13.33,0.065,275.3
2021-01-25T03:58:03,42.805,6.029,-0.039,0.003,0.01,110.0,112.0,104.0,13.3,1505.3,324.2,-0.7,1.9,2470.397,13.33,0.039,274.4
2021-01-25T04:04:03,42.805,6.029,-0.071,-0.001,-0.017,109.0,112.0,105.0,13.4,1505.3,325.1,-0.8,1.8,2470.473,13.31,0.071,269.2
2021-01-25T04:07:03,42.805,6.029,-0.06,0.0,0.007,109.0,111.0,105.0,13.3,1505.3,326.4,-0.7,1.8,2470.432,13.31,0.06,270.0
2021-01-25T04:10:03,42.805,6.029,-0.054,0.025,0.001,109.0,112.0,105.0,13.4,1505.3,326.4,-0.8,1.9,2470.464,13.32,0.059,294.8
2021-01-25T04:13:03,42.805,6.029,-0.05,0.029,0.0,109.0,112.0,105.0,13.4,1505.3,327.0,-0.7,1.8,2470.456,13.32,0.057,300.1
2021-01-25T04:16:03,42.805,6.029,-0.027,0.007,-0.009,109.0,112.0,105.0,13.4,1505.3,324.0,-0.7,1.8,2470.436,13.32,0.027,284.5
2021-01-25T04:19:03,42.805,6.029,-0.044,0.015,-0.019,108.0,112.0,107.0,13.4,1505.3,326.9,-0.7,1.8,2470.382,13.32,0.046,288.8
2021-01-25T04:22:03,42.805,6.029,-0.034,0.002,0.0,108.0,111.0,105.0,13.4,1505.3,326.2,-0.7,1.8,2470.428,13.33,0.034,273.4
2021-01-25T04:25:03,42.805,6.029,-0.061,-0.013,-0.003,109.0,113.0,105.0,13.3,1505.3,324.7,-0.7,1.8,2470.468,13.33,0.062,258.0
2021-01-25T04:28:03,42.805,6.029,-0.059,0.003,-0.022,110.0,111.0,104.0,13.3,1505.3,323.0,-0.7,1.8,2470.432,13.33,0.059,272.9
2021-01-25T04:31:03,42.805,6.029,-0.071,0.0,-0.008,108.0,112.0,105.0,13.3,1505.3,326.6,-0.7,1.8,2470.448,13.33,0.07,270.0
2021-01-25T04:34:03,42.805,6.029,-0.037,0.015,0.014,109.0,113.0,104.0,13.3,1505.3,326.3,-0.7,1.8,2470.401,13.33,0.039,292.1
2021-01-25T04:40:03,42.805,6.029,-0.057,0.01,-0.037,108.0,113.0,106.0,13.3,1505.3,324.2,-0.7,1.8,2470.486,13.31,0.057,279.9
2021-01-25T04:43:03,42.805,6.029,-0.046,0.011,-0.014,109.0,112.0,105.0,13.4,1505.3,323.9,-0.7,1.8,2470.468,13.31,0.047,283.4
2021-01-25T04:46:03,42.805,6.029,-0.064,-0.004,-0.057,108.0,113.0,106.0,13.4,1505.3,325.3,-0.7,1.8,2470.468,13.32,0.064,266.4
2021-01-25T04:49:03,42.805,6.029,-0.049,-0.003,0.01,109.0,112.0,105.0,13.3,1505.3,324.7,-0.7,1.9,2470.44,13.32,0.049,266.5
2021-01-25T04:52:03,42.805,6.029,-0.015,0.009,-0.02,110.0,110.0,105.0,13.4,1505.3,323.5,-0.7,1.8,2470.44,13.32,0.017,301.0
2021-01-25T04:55:03,42.805,6.029,-0.055,0.019,-0.013,109.0,113.0,106.0,13.4,1505.3,327.4,-0.7,1.8,2470.472,13.33,0.058,289.1
2021-01-25T04:58:03,42.805,6.029,-0.058,0.007,-0.012,110.0,113.0,105.0,13.4,1505.3,323.6,-0.7,1.8,2470.464,13.33,0.058,276.9
2021-01-25T05:04:03,42.805,6.029,-0.056,-0.004,-0.005,109.0,112.0,105.0,13.4,1505.3,323.3,-0.7,1.8,2470.499,13.31,0.056,265.9
2021-01-25T05:07:03,42.805,6.029,-0.06,0.012,-0.002,109.0,111.0,104.0,13.4,1505.3,326.8,-0.7,1.8,2470.483,13.31,0.061,281.3
2021-01-25T05:10:03,42.805,6.029,-0.078,-0.018,-0.007,108.0,112.0,105.0,13.4,1505.3,324.5,-0.7,1.8,2470.471,13.32,0.08,257.0
2021-01-25T05:13:03,42.805,6.029,-0.065,0.022,-0.007,108.0,112.0,104.0,13.4,1505.3,324.4,-0.7,1.8,2470.447,13.32,0.068,288.7
2021-01-25T05:16:03,42.805,6.029,-0.072,-0.013,-0.038,108.0,111.0,105.0,13.4,1505.3,323.5,-0.7,1.8,2470.468,13.32,0.073,259.8
2021-01-25T05:19:03,42.805,6.029,-0.052,0.008,0.015,109.0,112.0,104.0,13.4,1505.3,327.5,-0.7,1.8,2470.45,13.32,0.052,278.7
2021-01-25T05:22:03,42.805,6.029,-0.038,0.018,-0.003,108.0,113.0,105.0,13.4,1505.3,327.6,-0.7,1.8,2470.43,13.32,0.042,295.3
2021-01-25T05:25:03,42.805,6.029,-0.055,0.013,-0.022,108.0,113.0,105.0,13.4,1505.3,326.2,-0.7,1.8,2470.459,13.32,0.056,283.3
2021-01-25T05:28:03,42.805,6.029,-0.047,0.017,0.014,108.0,113.0,105.0,13.3,1505.3,324.0,-0.7,1.9,2470.432,13.33,0.049,289.9
2021-01-25T05:31:03,42.805,6.029,-0.055,-0.003,-0.003,108.0,112.0,105.0,13.4,1505.3,323.1,-0.7,1.9,2470.434,13.33,0.055,266.9
2021-01-25T05:34:03,42.805,6.029,-0.055,0.015,0.008,109.0,111.0,104.0,13.4,1505.3,325.7,-0.7,1.8,2470.434,13.33,0.057,285.3
2021-01-25T05:37:03,42.805,6.029,-0.048,0.006,-0.009,108.0,112.0,104.0,13.4,1505.3,324.6,-0.7,1.8,2470.429,13.33,0.048,277.1
2021-01-25T05:40:03,42.805,6.029,-0.029,0.001,0.04,109.0,113.0,104.0,13.4,1505.3,326.4,-0.7,1.9,2470.461,13.33,0.029,272.0
2021-01-25T05:43:03,42.805,6.029,-0.052,0.015,0.0,109.0,114.0,105.0,13.3,1505.3,327.1,-0.7,1.8,2470.463,13.33,0.054,286.1
2021-01-25T05:46:03,42.805,6.029,-0.063,0.009,-0.001,108.0,112.0,105.0,13.4,1505.3,324.9,-0.7,1.8,2470.464,13.33,0.063,278.1
2021-01-25T05:49:03,42.805,6.029,-0.061,-0.006,-0.025,108.0,111.0,106.0,13.3,1505.3,326.6,-0.7,1.8,2470.417,13.33,0.061,264.4
2021-01-25T05:52:03,42.805,6.029,-0.066,-0.013,-0.028,108.0,112.0,104.0,13.4,1505.3,326.2,-0.7,1.9,2470.461,13.33,0.067,258.9
2021-01-25T05:55:03,42.805,6.029,-0.059,0.021,0.0,108.0,114.0,104.0,13.4,1505.3,325.6,-0.7,1.8,2470.443,13.33,0.062,289.6
2021-01-25T05:58:03,42.805,6.029,-0.053,0.008,-0.005,108.0,112.0,103.0,13.3,1505.3,324.1,-0.7,1.8,2470.418,13.33,0.053,278.6
2021-01-25T06:04:03,42.805,6.029,-0.037,0.005,0.004,108.0,113.0,104.0,13.4,1505.3,326.2,-0.7,1.8,2470.501,13.31,0.037,277.7
2021-01-25T06:07:03,42.805,6.029,-0.084,0.02,-0.016,108.0,112.0,105.0,13.3,1505.3,326.8,-0.7,1.8,2470.478,13.31,0.086,283.4
2021-01-25T06:10:03,42.805,6.029,-0.092,0.011,0.021,107.0,112.0,104.0,13.4,1505.3,323.0,-0.7,1.8,2470.464,13.32,0.092,276.8
2021-01-25T06:13:03,42.805,6.029,-0.059,0.006,-0.015,107.0,112.0,104.0,13.4,1505.3,325.2,-0.7,1.8,2470.488,13.32,0.059,275.8
2021-01-25T06:16:03,42.805,6.029,-0.069,0.003,0.009,107.0,113.0,103.0,13.4,1505.3,324.5,-0.7,1.8,2470.496,13.32,0.069,272.5
2021-01-25T06:19:03,42.805,6.029,-0.042,0.006,0.01,107.0,111.0,104.0,13.3,1505.3,324.4,-0.7,1.8,2470.465,13.32,0.042,278.1
2021-01-25T06:22:03,42.805,6.029,-0.044,0.014,-0.011,108.0,112.0,104.0,13.4,1505.3,325.8,-0.8,1.8,2470.489,13.32,0.046,287.6
2021-01-25T06:25:03,42.805,6.029,-0.078,-0.017,-0.012,106.0,111.0,103.0,13.3,1505.3,325.7,-0.7,1.8,2470.457,13.32,0.079,257.7
2021-01-25T06:28:03,42.805,6.029,-0.03,0.015,0.006,107.0,112.0,103.0,13.4,1505.3,323.2,-0.7,1.8,2470.42,13.32,0.033,296.6
2021-01-25T06:31:03,42.805,6.029,-0.039,0.016,0.0,107.0,112.0,102.0,13.4,1505.3,326.5,-0.7,1.8,2470.411,13.33,0.042,292.3
2021-01-25T06:34:03,42.805,6.029,-0.06,0.013,0.0,107.0,112.0,104.0,13.3,1505.3,324.5,-0.7,1.8,2470.446,13.32,0.061,282.2
2021-01-25T06:37:03,42.805,6.029,-0.055,-0.004,0.002,107.0,112.0,103.0,13.3,1505.3,324.0,-0.7,1.8,2470.43,13.32,0.055,265.8
2021-01-25T06:43:03,42.805,6.029,-0.027,0.005,-0.006,106.0,111.0,104.0,13.4,1505.3,325.4,-0.7,1.8,2470.471,13.31,0.027,280.5
2021-01-25T06:46:03,42.805,6.029,-0.071,-0.004,-0.011,107.0,112.0,103.0,13.3,1505.3,325.3,-0.7,1.8,2470.521,13.31,0.071,266.8
2021-01-25T06:49:03,42.805,6.029,-0.054,-0.01,0.018,108.0,111.0,103.0,13.3,1505.3,323.9,-0.7,1.8,2470.455,13.32,0.054,259.5
2021-01-25T06:52:03,42.805,6.029,-0.042,0.014,0.011,106.0,111.0,103.0,13.4,1505.3,326.3,-0.7,1.8,2470.45,13.32,0.044,288.4
2021-01-25T06:55:03,42.805,6.029,-0.047,0.004,0.05,107.0,111.0,103.0,13.4,1505.3,326.7,-0.7,1.8,2470.446,13.32,0.047,274.9
2021-01-25T06:58:03,42.805,6.029,-0.012,0.045,0.017,106.0,111.0,105.0,13.3,1505.3,328.0,-0.7,1.8,2470.478,13.32,0.046,345.1
2021-01-25T07:04:03,42.805,6.029,-0.062,0.019,0.002,108.0,112.0,104.0,13.3,1505.3,326.0,-0.7,1.8,2470.52,13.31,0.064,287.0
2021-01-25T07:07:03,42.805,6.029,-0.065,0.009,-0.023,108.0,112.0,103.0,13.4,1505.3,324.2,-0.7,1.8,2470.514,13.31,0.065,277.9
2021-01-25T07:10:03,42.805,6.029,-0.074,0.0,-0.02,106.0,112.0,103.0,13.4,1505.3,326.5,-0.7,1.8,2470.494,13.32,0.073,270.0
2021-01-25T07:13:03,42.805,6.029,-0.064,0.037,0.003,107.0,112.0,103.0,13.4,1505.3,328.2,-0.7,1.8,2470.466,13.32,0.073,300.0
2021-01-25T07:16:03,42.805,6.029,-0.056,0.015,0.012,107.0,111.0,104.0,13.4,1505.3,326.5,-0.7,1.8,2470.469,13.32,0.057,285.0
2021-01-25T07:19:03,42.805,6.029,-0.05,0.0,-0.01,107.0,113.0,103.0,13.4,1505.3,323.2,-0.7,1.9,2470.471,13.32,0.05,270.0
2021-01-25T07:22:03,42.805,6.029,-0.035,0.005,0.02,106.0,112.0,103.0,13.3,1505.3,324.3,-0.7,1.8,2470.457,13.32,0.035,278.1
2021-01-25T07:25:03,42.805,6.029,-0.09,0.01,-0.026,107.0,112.0,104.0,13.3,1505.3,327.9,-0.7,1.8,2470.437,13.32,0.09,276.3
2021-01-25T07:28:03,42.805,6.029,-0.054,0.016,0.033,107.0,112.0,103.0,13.4,1505.3,323.3,-0.7,1.8,2470.48,13.32,0.056,286.5
2021-01-25T07:31:03,42.805,6.029,-0.062,0.008,-0.029,106.0,113.0,104.0,13.3,1505.3,325.8,-0.7,1.8,2470.465,13.32,0.062,277.3
2021-01-25T07:34:03,42.805,6.029,-0.042,0.0,0.013,107.0,114.0,103.0,13.4,1505.3,324.1,-0.7,1.8,2470.439,13.32,0.042,270.0
2021-01-25T07:37:03,42.805,6.029,-0.067,0.015,0.008,108.0,113.0,103.0,13.4,1505.3,327.1,-0.7,1.8,2470.469,13.32,0.068,282.6
2021-01-25T07:40:03,42.805,6.029,-0.041,0.025,0.001,106.0,112.0,103.0,13.4,1505.3,324.9,-0.7,1.8,2470.426,13.32,0.048,301.4
2021-01-25T07:43:03,42.805,6.029,-0.033,0.018,0.011,107.0,112.0,103.0,13.3,1505.3,326.4,-0.6,1.8,2470.459,13.32,0.037,298.6
2021-01-25T07:46:03,42.805,6.029,-0.028,0.0,-0.009,106.0,112.0,104.0,13.3,1505.3,326.9,-0.7,1.8,2470.384,13.32,0.028,270.0
2021-01-25T07:49:03,42.805,6.029,-0.052,0.018,-0.011,105.0,111.0,105.0,13.3,1505.3,325.5,-0.7,1.8,2470.443,13.32,0.055,289.1
2021-01-25T07:52:03,42.805,6.029,-0.085,0.02,-0.018,107.0,112.0,103.0,13.3,1505.3,325.7,-0.7,1.8,2470.402,13.32,0.087,283.2
2021-01-25T07:55:03,42.805,6.029,-0.052,0.02,0.003,107.0,112.0,103.0,13.3,1505.3,325.6,-0.7,1.8,2470.452,13.33,0.055,291.0
2021-01-25T07:58:03,42.805,6.029,-0.058,0.019,0.013,106.0,111.0,103.0,13.3,1505.3,325.6,-0.7,1.8,2470.435,13.33,0.061,288.1
2021-01-25T08:04:03,42.805,6.029,-0.08,-0.023,-0.027,107.0,110.0,104.0,13.3,1505.3,323.0,-0.7,1.8,2470.449,13.31,0.083,254.0
2021-01-25T08:07:03,42.805,6.029,-0.056,0.007,0.015,108.0,114.0,104.0,13.4,1505.3,324.1,-0.7,1.9,2470.47,13.31,0.056,277.1
2021-01-25T08:10:03,42.805,6.029,-0.094,0.007,-0.012,106.0,113.0,103.0,13.4,1505.3,326.5,-0.7,1.8,2470.429,13.32,0.094,274.3
2021-01-25T08:13:03,42.805,6.029,-0.072,0.032,-0.026,106.0,112.0,103.0,13.4,1505.3,325.3,-0.7,1.8,2470.472,13.32,0.078,294.0
2021-01-25T08:16:03,42.805,6.029,-0.054,0.012,-0.022,108.0,113.0,104.0,13.4,1505.3,327.1,-0.7,1.9,2470.452,13.32,0.055,282.5
2021-01-25T08:19:03,42.805,6.029,-0.044,0.018,0.019,106.0,112.0,103.0,13.4,1505.3,326.2,-0.7,1.8,2470.481,13.32,0.047,292.2
2021-01-25T08:22:03,42.805,6.029,-0.067,0.025,-0.006,107.0,113.0,104.0,13.4,1505.3,326.7,-0.7,1.8,2470.436,13.32,0.071,290.5
2021-01-25T08:25:03,42.805,6.029,-0.049,0.019,0.038,106.0,113.0,103.0,13.3,1505.3,326.4,-0.7,1.8,2470.445,13.32,0.052,291.2
2021-01-25T08:28:03,42.805,6.029,-0.043,0.015,0.033,107.0,113.0,103.0,13.4,1505.3,327.5,-0.7,1.8,2470.461,13.32,0.045,289.2
2021-01-25T08:31:03,42.805,6.029,-0.049,0.026,-0.016,107.0,113.0,103.0,13.4,1505.3,327.4,-0.7,1.8,2470.441,13.32,0.055,297.9
2021-01-25T08:34:03,42.805,6.029,-0.081,0.003,-0.016,107.0,114.0,104.0,13.3,1505.3,324.6,-0.7,1.8,2470.419,13.32,0.081,272.1
2021-01-25T08:37:03,42.805,6.029,-0.065,0.001,-0.015,106.0,111.0,105.0,13.4,1505.3,327.9,-0.7,1.8,2470.429,13.32,0.065,270.9
2021-01-25T08:40:03,42.805,6.029,-0.094,0.013,-0.012,106.0,112.0,103.0,13.4,1505.3,324.1,-0.7,1.8,2470.422,13.32,0.094,277.9
2021-01-25T08:43:03,42.805,6.029,-0.084,0.028,0.005,106.0,112.0,103.0,13.3,1505.3,326.1,-0.7,1.8,2470.459,13.32,0.088,288.4
2021-01-25T08:46:03,42.805,6.029,-0.055,0.007,-0.001,107.0,112.0,102.0,13.4,1505.3,323.1,-0.7,1.8,2470.383,13.32,0.055,277.3
2021-01-25T08:49:03,42.805,6.029,-0.062,-0.007,0.015,107.0,113.0,102.0,13.4,1505.3,324.7,-0.7,1.9,2470.437,13.32,0.062,263.6
2021-01-25T08:52:03,42.805,6.029,-0.082,0.01,0.011,107.0,112.0,103.0,13.4,1505.3,324.2,-0.7,1.8,2470.437,13.32,0.082,277.0
2021-01-25T08:55:03,42.805,6.029,-0.062,0.023,-0.003,106.0,114.0,103.0,13.4,1505.3,327.9,-0.7,1.8,2470.42,13.32,0.066,290.3
2021-01-25T08:58:03,42.805,6.029,-0.072,0.023,-0.012,106.0,113.0,103.0,13.3,1505.3,323.0,-0.7,1.8,2470.437,13.32,0.075,287.7
2021-01-25T09:04:03,42.805,6.029,-0.051,-0.005,0.009,107.0,111.0,104.0,13.4,1505.2,324.9,-0.7,1.8,2470.474,13.3,0.051,264.4
2021-01-25T09:07:03,42.805,6.029,-0.043,0.018,0.016,107.0,111.0,103.0,13.3,1505.3,325.9,-0.8,1.8,2470.453,13.31,0.046,292.7
2021-01-25T09:10:03,42.805,6.029,-0.033,0.008,-0.026,108.0,111.0,104.0,13.4,1505.3,327.1,-0.7,1.8,2470.452,13.32,0.033,283.6
2021-01-25T09:13:03,42.805,6.029,-0.045,0.014,0.021,106.0,114.0,103.0,13.4,1505.3,327.5,-0.7,1.9,2470.438,13.32,0.047,287.3
2021-01-25T09:16:03,42.805,6.029,-0.051,0.003,0.009,107.0,114.0,103.0,13.3,1505.3,323.6,-0.7,1.8,2470.44,13.32,0.051,273.4
2021-01-25T09:19:03,42.805,6.029,-0.053,0.0,0.01,107.0,113.0,103.0,13.4,1505.3,323.4,-0.7,1.8,2470.405,13.32,0.053,270.0
2021-01-25T09:22:03,42.805,6.029,-0.044,0.038,0.018,108.0,114.0,104.0,13.4,1505.3,326.9,-0.7,1.8,2470.416,13.32,0.058,310.8
2021-01-25T09:25:03,42.805,6.029,-0.068,0.007,-0.009,107.0,115.0,104.0,13.4,1505.3,323.9,-0.7,1.9,2470.414,13.32,0.068,275.9
2021-01-25T09:28:03,42.805,6.029,-0.063,0.022,0.011,108.0,114.0,103.0,13.3,1505.3,325.0,-0.7,1.8,2470.426,13.32,0.066,289.2
2021-01-25T09:31:03,42.805,6.029,-0.052,0.009,0.005,108.0,113.0,104.0,13.4,1505.3,325.5,-0.7,1.8,2470.424,13.32,0.052,279.8
2021-01-25T09:34:03,42.805,6.029,-0.057,0.035,0.021,108.0,111.0,103.0,13.4,1505.3,323.4,-0.7,1.8,2470.46,13.32,0.066,301.6
2021-01-25T09:37:03,42.805,6.029,-0.07,-0.004,-0.016,108.0,112.0,104.0,13.3,1505.3,325.7,-0.7,1.9,2470.405,13.32,0.07,266.7
2021-01-25T09:40:03,42.805,6.029,-0.068,0.002,-0.016,107.0,111.0,103.0,13.4,1505.3,325.7,-0.7,1.8,2470.438,13.33,0.068,271.7
2021-01-25T09:43:03,42.805,6.029,-0.075,0.02,-0.037,107.0,113.0,104.0,13.4,1505.3,326.6,-0.7,1.8,2470.41,13.33,0.077,284.9
2021-01-25T09:46:03,42.805,6.029,-0.079,0.005,0.002,107.0,113.0,104.0,13.3,1505.3,323.9,-0.7,1.8,2470.409,13.33,0.079,273.6
2021-01-25T09:49:03,42.805,6.029,-0.08,0.022,-0.013,108.0,113.0,104.0,13.4,1505.3,327.4,-0.7,1.8,2470.4,13.33,0.082,285.4
2021-01-25T09:52:03,42.805,6.029,-0.072,0.013,0.027,108.0,113.0,103.0,13.4,1505.3,325.2,-0.7,1.8,2470.405,13.32,0.073,280.2
2021-01-25T09:55:03,42.805,6.029,-0.062,0.002,-0.021,109.0,113.0,104.0,13.4,1505.3,328.0,-0.7,1.9,2470.414,13.32,0.062,271.8
2021-01-25T09:58:03,42.805,6.029,-0.053,0.037,-0.011,108.0,113.0,103.0,13.4,1505.3,324.6,-0.7,1.8,2470.389,13.33,0.064,304.9
2021-01-25T10:04:03,42.805,6.029,-0.064,0.009,-0.009,108.0,112.0,104.0,13.3,1505.3,326.0,-0.7,1.8,2470.474,13.31,0.064,278.0